Simultaneous Nadir Overpasses (SNOs) Predictions

Prediction of SNOs between AQUA and METOP-B Satellite Orbit:

Table of predicted SNOs for the next 14.0 days since TLE Epoch: 7/1/2023
Index Date (AQUA) Time (AQUA) Lat,Lon (AQUA) SZA (AQUA ) Date (METOP-B) Time (METOP-B) Lat,Lon (METOP-B) SZA (METOP-B ) Distance(km) Time Diff (sec)
1 07/02/2023 07:25:26 74.59, 64.51 51.53 07/02/2023 07:24:59 74.60, 64.55 51.55 2.00 27
2 07/02/2023 08:14:51 -74.67,-128.04 128.38 07/02/2023 08:15:40 -74.64,-128.01 128.42 3.35 49
3 07/05/2023 00:28:34 -74.55, -11.14 128.30 07/05/2023 00:27:20 -74.51, -11.29 128.32 6.41 74
4 07/05/2023 01:18:01 74.63, 156.31 51.80 07/05/2023 01:17:57 74.63, 156.39 51.80 2.42 4
5 07/05/2023 02:07:25 -74.65, -36.11 128.18 07/05/2023 02:08:38 -74.68, -36.17 128.16 3.21 73
6 07/07/2023 18:21:08 -74.57, 80.71 128.00 07/07/2023 18:20:17 -74.58, 80.66 127.98 2.30 51
7 07/07/2023 19:10:35 74.65,-111.86 52.10 07/07/2023 19:10:55 74.66,-111.80 52.10 1.92 20
8 07/10/2023 12:13:42 -74.62, 172.46 127.61 07/10/2023 12:13:15 -74.60, 172.46 127.63 2.59 27
9 07/10/2023 13:03:08 74.67, -20.00 52.44 07/10/2023 13:03:53 74.67, -20.01 52.45 1.10 45
10 07/13/2023 05:16:46 74.45, 97.13 52.58 07/13/2023 05:15:34 74.42, 96.40 52.57 22.17 72
11 07/13/2023 06:06:14 -74.67, -95.76 127.19 07/13/2023 06:06:11 -74.66, -95.63 127.20 3.78 3



Historial Predications of SNOs between AQUA and METOP-B
